• Processing (Info)

  • MPEC 2007-P24 : 2007 PF6

    The following Minor Planet Electronic Circular may be linked-to from your own Web pages, but must not otherwise be redistributed electronically.

    A form allowing access to any MPEC is at the bottom of this page.


    Read MPEC 2007-P23 Read MPEC 2007-P25


    M.P.E.C. 2007-P24                                Issued 2007 Aug. 10, 05:35 UT
    
         The Minor Planet Electronic Circulars contain information on unusual
             minor planets and routine data on comets.  They are published
       on behalf of Commission 20 of the International Astronomical Union by the
              Minor Planet Center, Smithsonian Astrophysical Observatory,
                              Cambridge, MA 02138, U.S.A.
    
                 Prepared using the Tamkin Foundation Computer Network
    
                                  MPC@CFA.HARVARD.EDU
              URL http://www.cfa.harvard.edu/iau/mpc.html  ISSN 1523-6714
    
                                       2007 PF6
    
    Observations:
         K07P06F* C2007 08 08.20922 20 37 59.11 -27 22 25.3          18.0   EP024704
         K07P06F  C2007 08 08.22151 20 37 54.83 -27 21 04.3          18.2   EP024704
         K07P06F  C2007 08 08.23371 20 37 50.56 -27 19 42.2          18.4   EP024704
         K07P06F  C2007 08 08.24590 20 37 46.31 -27 18 21.6          18.5   EP024704
         K07P06F  C2007 08 09.26746 20 32 25.21 -25 28 20.4          18.2   EP024704
         K07P06F  C2007 08 09.27933 20 32 21.54 -25 27 06.0          18.5   EP024704
         K07P06F 5C2007 08 09.28455 20 32 20.35 -25 26 34.6          17.8 R EP024673
         K07P06F 5C2007 08 09.29068 20 32 18.41 -25 25 56.1                 EP024673
         K07P06F  C2007 08 09.29107 20 32 17.80 -25 25 54.2          19.4   EP024704
         K07P06F 5C2007 08 09.29659 20 32 16.55 -25 25 19.1                 EP024673
         K07P06F  C2007 08 09.30287 20 32 14.13 -25 24 38.5          18.8   EP024704
         K07P06F 5C2007 08 09.30353 20 32 14.42 -25 24 36.1                 EP024673
         K07P06F  C2007 08 09.31465 20 32 10.42 -25 23 24.9          18.6   EP024704
         K07P06F  C2007 08 09.88292 20 29 28.66 -24 25 22.2          18.2 V EP024A55
         K07P06F  C2007 08 09.88473 20 29 28.12 -24 25 10.8          18.1 V EP024A55
         K07P06F  C2007 08 09.88656 20 29 27.58 -24 25 00.8          18.2 V EP024A55
         K07P06F  C2007 08 09.88840 20 29 27.09 -24 24 49.1          18.1 V EP024A55
         K07P06F  C2007 08 09.94851 20 29 10.22 -24 18 47.3          18.4 V EP024J87
         K07P06F  C2007 08 09.95342 20 29 08.80 -24 18 18.2          18.6 V EP024J87
         K07P06F  C2007 08 09.95836 20 29 07.35 -24 17 48.6          18.0 V EP024J87
    
    Observer details:
    673 Table Mountain Observatory, Wrightwood.  Observer J. Young.  0.61-m f/16
        Cassegrain + CCD.
    704 Lincoln Laboratory ETS, New Mexico.  Observers M. Bezpalko, D. Torres,
        R. Kracke, G. Spitz, J. Kistler.  Measurers J. Stuart, S. Scruggs.  1.0-m
        f/2.15 reflector + CCD.
    A55 Osservatorio Astronomico Vallemare di Borbona.  Observer V. S. Casulli.
        0.40-m f/4.5 Newtonian reflector + CCD.
    J87 La Canada.  Observer J. Lacruz.  0.30-m Schmidt-Cassegrain + CCD.
    
    Orbital elements:
    2007 PF6                                            PHA, Earth MOID = 0.0289 AU
    Epoch 2007 Oct. 27.0 TT = JDT 2454400.5                 MPC
    M 108.99541              (2000.0)            P               Q
    n   0.66095520     Peri.  251.36076     -0.81956881     +0.48827617
    a   1.3052330      Node   316.43616     -0.20114095     -0.73513862
    e   0.4202133      Incl.   25.78867     -0.53651588     -0.47027395
    P   1.49           H   20.3           G   0.15           U   9
    Residuals in seconds of arc
    070808 704  0.1+  0.1-    070809 673  0.2-  0.2-    070809 A55  0.2-  0.4+
    070808 704  0.1+  0.6-    070809 704  0.1-  1.1-    070809 A55  0.3-  0.6-
    070808 704  0.1-  0.5+    070809 673  0.4-  0.1-    070809 A55  0.4+  0.1+
    070808 704  0.2-  0.2+    070809 704  0.1+  0.7+    070809 J87  0.0   0.2+
    070809 704  0.1+  0.6+    070809 673  0.1+  0.5-    070809 J87  0.1+  0.1-
    070809 704  0.8+  0.7+    070809 704  0.3-  0.4+    070809 J87  0.1-  0.0
    070809 673  0.1+  0.4-    070809 A55  0.0   0.1-
    
    Ephemeris:
    2007 PF6                 a,e,i = 1.31, 0.42, 26                  q = 0.7568
    Date    TT    R. A. (2000) Decl.     Delta      r     Elong.  Phase     V
    2007 08 08    20 39.14   -27 45.3    0.199    1.208   166.6    11.3    17.9
    2007 08 13    20 17.08   -19 41.5    0.237    1.242   162.2    14.4    18.5
    2007 08 18    20 03.80   -13 54.6    0.283    1.274   154.8    19.8    19.1
    2007 08 23    19 55.86   -09 46.9    0.334    1.306   148.0    24.2    19.6
    2007 08 28    19 51.43   -06 47.6    0.388    1.337   142.0    27.7    20.1
    2007 09 02    19 49.43   -04 35.6    0.445    1.368   136.8    30.3    20.5
    2007 09 07    19 49.22   -02 56.7    0.504    1.397   132.2    32.3    20.9
    2007 09 12    19 50.42   -01 41.1    0.566    1.426   127.9    33.8    21.2
    2007 09 17    19 52.75   -00 42.0    0.629    1.454   124.0    35.0    21.5
    
    Sonia Keys                   (C) Copyright 2007 MPC           M.P.E.C. 2007-P24
    

    Read MPEC 2007-P23 Read MPEC 2007-P25


    MPEC number:

    Enter an MPEC number in one of the following forms:

    • 1997-B01 (the full form)
    • J97B01 (the packed version of the full form)
    • B01 (the abbreviated form)